Regional Weather Roundup
Issued by NWS Portland, ME

Current Version | Previous Version | Text Only | Print | Product List | Glossary On
Versions: 1 2 3 4 5 6 7 8 9 10 11 12 13 14 15 16 17 18 19 20 21 22 23 24 25 26 27 28 29 30 31 32 33 34 35 36 37 38 39 40 41 42 43 44 45 46 47 48 49 50
000
ASUS41 KGYX 210910
RWRGYX
WEATHER ROUNDUP FOR MAINE AND NEW HAMPSHIRE
NATIONAL WEATHER SERVICE GRAY ME
500 AM EDT MON APR 21 2014

MEZ002-005-006-010-012-015-018-020-021-024-026-027-029-211000-
MAINE

CITY           SKY/WX    TMP DP  RH WIND       PRES   REMARKS
PORTLAND       PTCLDY    36  32  85 CALM      30.21F
SANFORD        CLEAR     27 -18  13 S5        30.19F
BAR HARBOR     MOCLDY    39  37  93 SW7       30.20F
WISCASSET      PTCLDY    34  32  92 CALM      30.22F
ROCKLAND       PTCLDY    39  36  87 SW9       30.21F
FRYEBURG       MOCLDY    36  27  69 SW3       30.17F
LEWISTONAUBURN CLEAR     34  27  75 CALM      30.18F
AUGUSTA        PTCLDY    36  32  85 S7        30.18F
WATERVILLE     PTCLDY    36  30  80 S6        30.13F
BANGOR         MOCLDY    37  30  75 S7        30.17F
GREENVILLE       N/A     33  20  58 SE6       30.08F
MILLINOCKET    CLOUDY    37  24  59 E5        30.13F
HOULTON        CLOUDY    38  21  50 SW9       30.10F
PRESQUE ISLE   CLOUDY    37  25  60 SE6       30.09F
FRENCHVILLE    CLOUDY    36  17  46 CALM      30.04F
CARIBOU        CLOUDY    37  27  67 S8        30.06F
$$

NHZ002-005-008-009-011-012-014-211000-
NEW HAMPSHIRE

CITY           SKY/WX    TMP DP  RH WIND       PRES   REMARKS
PORTSMOUTH     PTCLDY    33  32  97 SE1       30.21F
ROCHESTER      CLEAR     33  28  81 CALM      30.20F
NASHUA         CLEAR     33  29  86 CALM      30.22F
MANCHESTER     CLEAR     36  28  73 CALM      30.20F
CONCORD        CLEAR     29  25  85 CALM      30.20F
LACONIA        CLEAR     36  25  64 W5        30.19F
PLYMOUTH         N/A     32  29  89 CALM      30.19F
BERLIN         PTCLDY    32  27  81 CALM      30.12F
WHITEFIELD     CLOUDY    31  26  82 CALM      30.14F
JAFFREY        CLEAR     31  24  75 S5        30.20F
LEBANON        PTCLDY    40  26  57 CALM      30.17F
MT WASHINGTON  MOCLDY    32  23  69 W38         N/A  WCI  16
$$

VTZ005-007-008-211000-
VERMONT

CITY           SKY/WX    TMP DP  RH WIND       PRES   REMARKS
ST JOHNSBURY     N/A     38  26  62 MISG      30.13F
MONTPELIER     MOCLDY    43  20  39 SE5       30.15F
BURLINGTON     CLOUDY    51  25  36 S20G26    30.10F
$$

MAZ007-012-024-CTZ003-RIZ002-NYZ038-NYZ072-211000-
SOUTHERN NEW ENGLAND AND NY

CITY           SKY/WX    TMP DP  RH WIND       PRES   REMARKS
BOSTON         PTCLDY    38  31  76 SW6       30.25F
WORCESTER      CLEAR     36  22  56 W12       30.21F
NANTUCKET      CLEAR     36  33  89 E6        30.24F
PROVIDENCE     FOG       34  33  96 SW3       30.25F VSB 1/2
HARTFORD       PTCLDY    33  27  78 S3        30.23F
ALBANY         PTCLDY    43  27  53 S7        30.20S
NEW YORK CITY  CLEAR     41  31  67 E3        30.23F
$$

ANZ081-ANZ082-ANZ150-NHZ014-MEZ023>029-211000-
COASTAL MARINE OBSERVATIONS

STATION/POSITION TIME  TEMP    WIND        PRES    WAVE
                       AIR SEA DIR/SP/G            HT/PER
                 (UTC) (F)     (DEG/KT/KT) (MB)    (FT/S)
MOUNT DESERT ROC 0900   40                 1022.7F
MATINICUS ROCK   0800   40     220/ 13/ 14 1023.7F
PORTLAND WX BUOY 0900   42 42  210/ 12/ 14 1022.8F   2/ 4
WELLS            0900   33 39  240/  3/  4 1022.5F
ISLE OF SHOALS   0800   40     200/ 12/ 13 1023.3F
JEFFREYS LEDGE   0900      41                N/A     2/ 8
CASHES LEDGE BUO 0900   41 41  200/ 10/ 12 1023.7F   2/ 4
$$

.............KEY..............
   WCI - WIND CHILL
   TC  - TEMPERATURE IN CELSIUS
   VSB - VISIBILITY IN MILES
   HX  - HEAT INDEX
   FAIR- INDICATES FEW OR NO CLOUDS BELOW 12,000 FT, WITH NO
         SIGNIFICANT WEATHER AND/OR OBSTRUCTIONS TO VISIBILITY.





USA.gov is the U.S. government's official web portal to all federal, state and local government web resources and services.